[[{"header":{"parameterUnit":"m.s-1","parameterCategory":1,"la1":30.2991,"la2":30.254,"lo1":-89.0895,"lo2":-89.0444,"dy":0.0017,"dx":0.0017,"nx":28,"ny":28,"refTime":"2024-03-20T21:00:00:Z","depth":0,"parameterNumber":2,"parameterNumberName":"U-component_of_WINDS"},"data":[0,0,0,0,0,0,0,0,0,0,0,0,0,0,0,0,0,0,0,0,0,0,0,0,0,0,0,0,0,0,0,0,0,0,0,0,0,0,0,0,0,0,0,0,0,0,0,0,0,0,0,0,0,0,0,0,0,0,-0.5078,-0.5078,0,-0.5076,-0.5076,-0.5076,-0.5085,-0.5085,-0.5086,-0.5086,-0.5085,-0.5085,-0.5085,0,0,0,0,0,0,0,0,0,0,0,0,0,-0.5088,-0.5087,-0.5078,-0.5078,-0.5078,-0.5076,-0.5076,-0.5076,-0.5085,-0.5085,-0.5086,-0.5086,-0.5086,-0.5085,-0.5085,0,0,0,0,0,0,0,0,0,0,0,0,0,-0.5084,-0.5087,-0.5078,-0.5082,-0.5082,-0.5076,-0.5076,-0.5076,-0.5085,-0.5085,-0.5086,-0.5086,-0.5086,-0.5085,-0.5085,-0.5075,0,0,-0.5084,-0.5084,0,0,0,0,0,0,0,0,-0.5085,-0.5084,-0.5081,-0.5081,-0.5082,-0.5081,-0.508,-0.5076,-0.5085,-0.5084,-0.5086,-0.5086,-0.5084,-0.5084,-0.5083,-0.5075,-0.5075,-0.5084,-0.5084,-0.5083,-0.5083,0,0,0,0,0,0,0,-0.5085,-0.5084,-0.5077,-0.5081,-0.5082,-0.5084,-0.5084,-0.5079,-0.5082,-0.5084,-0.5085,-0.5084,-0.5084,-0.5083,-0.5083,-0.5075,-0.5084,-0.5083,-0.5083,-0.5083,-0.506,-0.5059,0,0,0,0,0,0,-0.5084,-0.5084,-0.5077,-0.5077,-0.5084,-0.5083,-0.5083,-0.5081,-0.5082,-0.5082,-0.5084,-0.5085,-0.5083,-0.5083,-0.5083,-0.5071,-0.5083,-0.5083,-0.5083,-0.506,-0.5059,-0.5059,0,0,0,0,0,0,-0.5085,-0.5084,-0.5077,-0.5081,-0.508,-0.5083,-0.508,-0.5081,-0.508,-0.5082,-0.5083,-0.5082,-0.5084,-0.5083,-0.5077,-0.5071,-0.5083,-0.5083,-0.506,-0.506,-0.5059,-0.5048,0,0,0,0,0,0,-0.5085,-0.5084,-0.508,-0.5081,-0.508,-0.5071,-0.508,-0.5081,-0.5079,-0.508,-0.5081,-0.5081,-0.5084,-0.5077,-0.5077,-0.5071,-0.5082,-0.5061,-0.506,-0.5059,-0.5049,-0.5048,-0.5046,0,0,0,0,0,-0.5085,-0.5078,-0.508,-0.5079,-0.5076,-0.5071,-0.5071,-0.5074,-0.5079,-0.5075,-0.5076,-0.5081,-0.5072,-0.5077,-0.5076,-0.507,-0.5061,-0.506,-0.506,-0.505,-0.5048,-0.5046,0,0,0,0,0,0,-0.5077,-0.5078,-0.508,-0.5073,-0.5072,-0.5073,-0.5068,-0.5072,-0.507,-0.5071,-0.5075,-0.5075,-0.5068,-0.5068,-0.5074,-0.5061,-0.5068,-0.5066,-0.5061,-0.5059,-0.5057,-0.5057,-0.5082,0,0,0,0,0,-0.5074,-0.507,-0.5071,-0.5064,-0.5063,-0.5066,-0.5064,-0.5067,-0.5066,-0.5066,-0.5066,-0.5066,-0.5063,-0.5061,-0.5058,-0.5049,-0.5049,-0.5045,-0.5043,-0.5042,-0.5041,-0.5036,-0.5034,-0.5056,-0.5056,-0.5056,0,0,-0.5068,-0.5068,-0.5066,-0.5062,-0.5062,-0.5058,-0.5066,-0.5061,-0.5058,-0.5065,-0.5059,-0.5059,-0.5059,-0.5051,-0.5048,-0.5051,-0.5035,-0.5041,-0.504,-0.5039,-0.5035,-0.5033,-0.5031,-0.5055,-0.5055,-0.5056,0,0,-0.5056,-0.5055,-0.5049,-0.5048,-0.5047,-0.5049,-0.5047,-0.5047,-0.5048,-0.5042,-0.5047,-0.5043,-0.5038,-0.5037,-0.5036,-0.5022,-0.5026,-0.5021,-0.5013,-0.5008,-0.5006,-0.5004,-0.4999,-0.4997,-0.502,-0.502,-0.502,0,-0.5049,-0.5042,-0.5046,-0.504,-0.5039,-0.5044,-0.5038,-0.5037,-0.5036,-0.5034,-0.5038,-0.5031,-0.5031,-0.5023,-0.502,-0.5019,-0.5017,-0.5021,-0.5006,-0.5004,-0.5003,-0.4998,-0.4996,-0.502,-0.502,-0.502,-0.502,0,-0.5034,-0.5029,-0.5025,-0.5022,-0.502,-0.5014,-0.5017,-0.5014,-0.5016,-0.5017,-0.5011,-0.5011,-0.5008,-0.5006,-0.5009,-0.4999,-0.5001,-0.5005,-0.5012,-0.5,-0.4996,-0.4994,-0.5019,-0.5019,-0.5019,-0.5019,0,0,-0.5016,-0.5015,-0.5013,-0.5012,-0.5011,-0.5008,-0.5002,-0.4999,-0.4996,-0.4995,-0.499,-0.4985,-0.4989,-0.4988,-0.499,-0.4986,-0.4974,-0.4991,-0.4991,-0.4988,-0.4962,-0.4959,-0.4957,-0.4977,-0.4977,-0.4976,-0.4962,0,-0.5004,-0.4994,-0.4996,-0.4987,-0.4982,-0.4987,-0.4982,-0.4981,-0.4982,-0.4978,-0.4979,-0.4975,-0.4981,-0.498,-0.4976,-0.4977,-0.4969,-0.4978,-0.4973,-0.4972,-0.4973,-0.4954,-0.4951,-0.4938,-0.4961,-0.496,-0.496,0,-0.4988,-0.4985,-0.4975,-0.4974,-0.4972,-0.4968,-0.4965,-0.4961,-0.496,-0.496,-0.4959,-0.4962,-0.4956,-0.4963,-0.4955,-0.4961,-0.4959,-0.4959,-0.4958,-0.4958,-0.4966,-0.4953,-0.4934,-0.4932,-0.4957,-0.4957,-0.4958,0,-0.4976,-0.497,-0.4963,-0.4961,-0.496,-0.4957,-0.4956,-0.4955,-0.4952,-0.495,-0.4948,-0.4945,-0.4943,-0.4941,-0.4943,-0.4948,-0.4935,-0.4942,-0.4935,-0.4935,-0.4932,-0.4933,-0.4912,-0.4931,-0.4931,-0.4931,-0.4931,0,-0.4962,-0.4955,-0.4957,-0.4953,-0.4945,-0.4948,-0.4941,-0.4941,-0.4939,-0.4935,-0.4939,-0.4935,-0.4938,-0.4934,-0.4936,-0.4929,-0.4928,-0.4928,-0.4929,-0.4928,-0.4928,-0.4927,-0.4928,-0.4931,-0.4931,-0.4931,-0.4931,0,-0.4947,-0.4948,-0.4941,-0.494,-0.4939,-0.4934,-0.4933,-0.4929,-0.493,-0.4924,-0.4923,-0.4924,-0.4919,-0.4921,-0.4917,-0.4918,-0.4909,-0.491,-0.4909,-0.4909,-0.4903,-0.4903,-0.488,-0.4877,-0.4899,-0.4899,-0.4898,0,-0.4938,-0.4933,-0.4931,-0.4928,-0.4927,-0.4923,-0.492,-0.4922,-0.492,-0.4917,-0.4913,-0.4909,-0.4906,-0.4898,-0.4899,-0.4895,-0.4897,-0.4889,-0.4896,-0.4895,-0.4896,-0.4897,-0.4896,-0.4888,-0.4887,-0.4887,-0.4887,0,-0.4922,-0.4922,-0.4918,-0.4914,-0.4911,-0.4908,-0.4905,-0.4903,-0.4905,-0.4901,-0.4897,-0.4894,-0.4889,-0.4885,-0.4881,-0.4881,-0.4884,-0.4885,-0.4883,-0.4882,-0.4881,-0.4881,-0.4905,-0.4885,-0.4885,-0.4885,-0.4886,-0.4886,-0.4909,-0.4905,-0.4903,-0.4898,-0.4896,-0.4893,-0.4889,-0.4889,-0.4885,-0.4881,-0.4882,-0.4877,-0.4875,-0.487,-0.4869,-0.4865,-0.4868,-0.4865,-0.4865,-0.4864,-0.4863,-0.4882,-0.4864,-0.4864,-0.4864,-0.4865,-0.4865,0,-0.4893,-0.4891,-0.4887,-0.4883,-0.4879,-0.4882,-0.4879,-0.4876,-0.4871,-0.4869,-0.4865,-0.4859,-0.4855,-0.4855,-0.4851,-0.4847,-0.4849,-0.4846,-0.4846,-0.4846,-0.4861,-0.4863,-0.4845,-0.4845,-0.4845,-0.4845,-0.4845,-0.4845,-0.4884,-0.4876,-0.4876,-0.4868,-0.4866,-0.4861,-0.4859,-0.4856,-0.4854,-0.4847,-0.4844,-0.4843,-0.4842,-0.4838,-0.4834,-0.4834,-0.4832,-0.4829,-0.4829,-0.4843,-0.4845,-0.4847,-0.4849,-0.4828,-0.4828,-0.4815,-0.4815,-0.4815]},{"header":{"parameterUnit":"m.s-1","parameterCategory":1,"la1":30.2991,"la2":30.254,"lo1":-89.0895,"lo2":-89.0444,"dy":0.0017,"dx":0.0017,"nx":28,"ny":28,"refTime":"2024-03-20T21:00:00:Z","depth":0,"parameterNumber":3,"parameterNumberName":"V-component_of_WINDS"},"data":[0,0,0,0,0,0,0,0,0,0,0,0,0,0,0,0,0,0,0,0,0,0,0,0,0,0,0,0,0,0,0,0,0,0,0,0,0,0,0,0,0,0,0,0,0,0,0,0,0,0,0,0,0,0,0,0,0,0,-0.9058,-0.9058,0,-0.9068,-0.9068,-0.9068,-0.9069,-0.9069,-0.9069,-0.9069,-0.9078,-0.9079,-0.9079,0,0,0,0,0,0,0,0,0,0,0,0,0,-0.9039,-0.9039,-0.9058,-0.9058,-0.9058,-0.9068,-0.9068,-0.9068,-0.9069,-0.9069,-0.9069,-0.9069,-0.9078,-0.9079,-0.9079,0,0,0,0,0,0,0,0,0,0,0,0,0,-0.9048,-0.9039,-0.9058,-0.906,-0.906,-0.9068,-0.9068,-0.9068,-0.9069,-0.9069,-0.9069,-0.9069,-0.9078,-0.9079,-0.9079,-0.9085,0,0,-0.9081,-0.9081,0,0,0,0,0,0,0,0,-0.9047,-0.9048,-0.9059,-0.906,-0.906,-0.9067,-0.9065,-0.9074,-0.9069,-0.9066,-0.9069,-0.9069,-0.9075,-0.9076,-0.9078,-0.9086,-0.9086,-0.9081,-0.9081,-0.9081,-0.9082,0,0,0,0,0,0,0,-0.9047,-0.9048,-0.9062,-0.906,-0.906,-0.906,-0.9061,-0.9067,-0.9071,-0.9066,-0.9066,-0.9067,-0.9075,-0.9077,-0.9078,-0.9086,-0.9081,-0.9081,-0.9082,-0.9082,-0.9101,-0.9101,0,0,0,0,0,0,-0.9046,-0.9048,-0.9062,-0.9062,-0.9053,-0.9061,-0.9062,-0.9065,-0.9071,-0.9072,-0.9068,-0.9067,-0.9076,-0.9077,-0.9078,-0.9086,-0.9081,-0.9082,-0.9082,-0.9101,-0.9101,-0.9101,0,0,0,0,0,0,-0.9045,-0.9047,-0.9061,-0.9055,-0.9057,-0.9061,-0.9065,-0.9065,-0.9068,-0.9072,-0.9073,-0.9069,-0.9076,-0.9078,-0.9084,-0.9087,-0.9082,-0.9083,-0.91,-0.9101,-0.9101,-0.9102,0,0,0,0,0,0,-0.9045,-0.9047,-0.9049,-0.9055,-0.9057,-0.9067,-0.9065,-0.9066,-0.9069,-0.9069,-0.9074,-0.9074,-0.9076,-0.9083,-0.9084,-0.9087,-0.9083,-0.91,-0.9101,-0.9101,-0.9102,-0.9102,-0.9103,0,0,0,0,0,-0.9044,-0.9049,-0.9049,-0.9051,-0.906,-0.9067,-0.9068,-0.907,-0.9069,-0.9071,-0.9074,-0.9074,-0.9086,-0.9084,-0.9085,-0.9088,-0.91,-0.91,-0.9101,-0.9102,-0.9102,-0.9103,0,0,0,0,0,0,-0.9043,-0.905,-0.905,-0.9057,-0.9061,-0.9067,-0.907,-0.9071,-0.9075,-0.9075,-0.9077,-0.9079,-0.9085,-0.9087,-0.9084,-0.9095,-0.9093,-0.9094,-0.9093,-0.9094,-0.9094,-0.9093,-0.9083,0,0,0,0,0,-0.9043,-0.9048,-0.9054,-0.9059,-0.9062,-0.9065,-0.9068,-0.907,-0.9074,-0.9076,-0.9079,-0.9083,-0.9088,-0.9091,-0.9096,-0.9102,-0.9104,-0.9105,-0.9106,-0.9106,-0.9107,-0.9111,-0.9112,-0.9103,-0.9103,-0.9103,0,0,-0.9044,-0.9049,-0.9051,-0.9059,-0.9063,-0.9068,-0.9067,-0.9072,-0.9076,-0.9077,-0.9083,-0.9086,-0.909,-0.9097,-0.91,-0.9099,-0.911,-0.9107,-0.9107,-0.9107,-0.9111,-0.9112,-0.9113,-0.9103,-0.9103,-0.9103,0,0,-0.9049,-0.9052,-0.9058,-0.9062,-0.9067,-0.907,-0.9071,-0.9077,-0.9079,-0.9085,-0.9086,-0.9091,-0.9099,-0.9102,-0.9105,-0.9112,-0.9112,-0.9113,-0.9116,-0.912,-0.9121,-0.9121,-0.9124,-0.9125,-0.9114,-0.9114,-0.9114,0,-0.9049,-0.9057,-0.906,-0.9066,-0.9069,-0.9071,-0.9076,-0.9079,-0.9086,-0.9088,-0.9088,-0.9098,-0.9101,-0.9109,-0.9111,-0.9113,-0.9115,-0.9112,-0.912,-0.9121,-0.9122,-0.9124,-0.9125,-0.9114,-0.9114,-0.9114,-0.9114,0,-0.9057,-0.9063,-0.9066,-0.9073,-0.9077,-0.9082,-0.9086,-0.909,-0.9091,-0.9094,-0.9101,-0.9105,-0.9111,-0.9113,-0.9114,-0.9121,-0.912,-0.912,-0.9118,-0.9123,-0.9125,-0.9126,-0.9114,-0.9114,-0.9114,-0.9114,0,0,-0.906,-0.907,-0.9071,-0.9074,-0.9081,-0.9085,-0.9091,-0.9097,-0.91,-0.9105,-0.911,-0.9117,-0.9117,-0.912,-0.9122,-0.9125,-0.9131,-0.9124,-0.9125,-0.9125,-0.9138,-0.9138,-0.9139,-0.9131,-0.9131,-0.9131,-0.9138,0,-0.9065,-0.9075,-0.9079,-0.9087,-0.9093,-0.9095,-0.91,-0.9105,-0.9108,-0.9112,-0.9116,-0.9121,-0.912,-0.9122,-0.9126,-0.9129,-0.9133,-0.9129,-0.9135,-0.9135,-0.9133,-0.9141,-0.9141,-0.9147,-0.9139,-0.9139,-0.9139,0,-0.9072,-0.9078,-0.9087,-0.9094,-0.9096,-0.9101,-0.9107,-0.9111,-0.9117,-0.9119,-0.9123,-0.9125,-0.9131,-0.9129,-0.9137,-0.9134,-0.9137,-0.9139,-0.9139,-0.9139,-0.9137,-0.9141,-0.9149,-0.9149,-0.9141,-0.914,-0.914,0,-0.9073,-0.9083,-0.909,-0.9093,-0.9101,-0.9104,-0.9108,-0.9113,-0.9117,-0.9122,-0.9125,-0.9131,-0.9134,-0.9138,-0.9141,-0.914,-0.9149,-0.9148,-0.9151,-0.9151,-0.9152,-0.9152,-0.916,-0.9155,-0.9155,-0.9155,-0.9155,0,-0.9079,-0.9084,-0.9091,-0.9095,-0.9102,-0.9106,-0.9112,-0.9115,-0.912,-0.9125,-0.9128,-0.9132,-0.9136,-0.9141,-0.9144,-0.915,-0.9152,-0.9153,-0.9154,-0.9153,-0.9153,-0.9154,-0.9154,-0.9155,-0.9155,-0.9155,-0.9155,0,-0.9081,-0.9086,-0.9093,-0.9101,-0.9103,-0.9107,-0.9114,-0.9118,-0.9121,-0.9127,-0.9129,-0.9134,-0.9141,-0.9144,-0.9152,-0.9154,-0.9161,-0.9161,-0.9159,-0.9159,-0.9162,-0.9162,-0.9172,-0.9173,-0.9167,-0.9167,-0.9167,0,-0.9084,-0.9088,-0.9096,-0.91,-0.9104,-0.911,-0.9114,-0.9118,-0.9122,-0.9129,-0.9133,-0.9139,-0.9144,-0.9154,-0.9158,-0.9164,-0.9165,-0.9168,-0.9165,-0.9165,-0.9165,-0.9164,-0.9165,-0.9168,-0.9168,-0.9168,-0.9168,0,-0.9088,-0.9091,-0.9097,-0.9104,-0.9109,-0.9114,-0.9119,-0.9122,-0.9128,-0.9132,-0.9139,-0.9143,-0.9151,-0.9157,-0.9164,-0.9167,-0.9168,-0.9169,-0.917,-0.9169,-0.9167,-0.9168,-0.916,-0.9168,-0.9168,-0.9168,-0.9168,-0.9168,-0.9091,-0.9095,-0.9102,-0.9109,-0.9113,-0.9119,-0.9123,-0.9128,-0.9133,-0.914,-0.9143,-0.915,-0.9155,-0.9164,-0.9168,-0.9173,-0.9173,-0.9174,-0.9175,-0.9175,-0.9175,-0.9167,-0.9174,-0.9174,-0.9174,-0.9174,-0.9174,0,-0.9096,-0.91,-0.9106,-0.9115,-0.912,-0.9121,-0.9128,-0.9132,-0.9138,-0.9144,-0.9149,-0.9157,-0.9163,-0.9168,-0.9175,-0.9178,-0.9179,-0.9179,-0.9179,-0.918,-0.9175,-0.9173,-0.9179,-0.9179,-0.9179,-0.9179,-0.9179,-0.9179,-0.9099,-0.9106,-0.9109,-0.9119,-0.9124,-0.9131,-0.9134,-0.9139,-0.9144,-0.9153,-0.9158,-0.9162,-0.9167,-0.9174,-0.918,-0.9181,-0.9183,-0.9184,-0.9185,-0.9181,-0.918,-0.918,-0.9178,-0.9185,-0.9185,-0.919,-0.919,-0.919]}]]